www.pogodaiklimat.ru

Погода и климат >> Архив погоды >> Гондурас >> Amapala


ПОГОДА в Amapala

  • Прогноз погоды в Amapala
  • Монитор погоды в Amapala
  • Климат города

АРХИВ ПОГОДЫ в Amapala

Время (UTC), дата Ветер
(напр.,м/с)
 
Видим.   Явления Облачность Т
(С)
Тd
(С)
f
(%)
Тe
(С)
Тes
(С)
Комфортность P
(гПа)
Po
(гПа)
Тmin
(С)
Tmax
(С)
R
(мм)
R24
(мм)
S
(см)
18 9.08 ЮЗ 2 20 км 9/1 900 м
[Cu hum Cs]
+33.6 +26.5 66 +50 +66 опасность
перегрева
1014.1 1013.6 +26.0 +33.6
21 9.08 ЮЗ 3 20 км 9/1 900 м
[Cu hum Cs]
+34.8 +27.0 64 +53 +59 опасность
перегрева
1011.6 1011.1
00 10.08 Ю 5 20 км 9/1 960 м
[Cb cap Cs]
+30.8 +27.7 84 +50 +50 опасность
перегрева
1012.5 1012.0 +26.0 +35.5
12 10.08 С 2 20 км 9/0
[Ac As Ci fib]
+25.2 +23.0 88 +34 +34 очень
душно
1014.7 1014.2 +24.5 +35.5 7
15 10.08 С 3 20 км 9/1 600 м
[Cu hum Ac lent Cs]
+27.6 +24.3 82 +39 +44 очень
душно
1014.9 1014.4
18 10.08 ЮЗ 3 10 км 9/1 750 м
[Cu hum Ac trans Cs]
+32.0 +25.9 70 +47 +56 опасность
перегрева
1014.6 1014.1 +24.5 +32.0
21 10.08 ЮЗ 3 20 км 9/3 960 м
[Cb cap Ac As Ci fib]
+32.0 +26.5 73 +49 +52 опасность
перегрева
1013.2 1012.7
00 11.08 СВ 3 20 км 10/1 960 м
[Cu hum As op]
+28.0 +24.2 80 +39 +39 очень
душно
1014.4 1013.9 +24.5 +33.5
12 11.08 С 2 20 км 6/0
[Ac trans]
+26.2 +24.6 91 +37 +37 очень
душно
1014.0 1013.5 +24.2 +33.5 2
15 11.08 С 2 20 км 8/0
[Ac trans]
+28.4 +24.3 78 +40 +46 очень
душно
1016.2 1015.7
18 11.08 штиль 0 20 км 9/1 900 м
[Cu hum Ac As]
+30.2 +24.0 69 +42 +52 опасность
перегрева
1016.1 1015.6 +24.2 +30.2
00 12.08 ЮЗ 2 20 км 3/1 900 м
[Cu med, cong Ci fib]
+31.8 +25.4 69 +46 +46 опасность
перегрева
1012.5 1012.0 +24.2 +31.8
12 12.08 штиль 0 20 км 6/0
[Cs]
+26.0 +24.6 92 +37 +37 очень
душно
1014.0 1013.5 +25.0 +33.5 1
15 12.08 С 3 20 км 8/0
[Cs]
+29.8 +25.8 79 +44 +53 опасность
перегрева
1014.7 1014.2
18 12.08 ЮЗ 2 10 км 3/1 900 м
[Cu hum Ci fib]
+33.8 +26.4 65 +50 +69 опасность
перегрева
1014.4 1013.9 +25.0 +33.8
21 12.08 З 5 20 км 3/1 960 м
[Cb cap Ci fib]
+25.4 -6 -2 1011.6 1010.8
00 13.08 ЮЗ 4 20 км 4/3 1020 м
[Cb cap Ci ing]
+31.2 +26.5 76 +48 +48 опасность
перегрева
1011.6 1011.1 +25.0 +35.6
12 13.08 С 2 20 км 9/1 840 м
[Sc diur, vesp Cs]
+23.6 +22.4 93 +31 +31 очень
душно
1013.5 1013.0 +22.0 +35.6 24
15 13.08 С 2 20 км 9/1 900 м
[Cu hum Cs]
+28.0 +23.6 77 +38 +47 очень
душно
1013.8 1013.3
18 13.08 ЮЗ 3 20 км 9/1 900 м
[Cu hum Cs]
+30.4 +23.6 67 +41 +55 опасность
перегрева
1013.5 1013.0 +22.0 +30.8
21 13.08 ЮЗ 2 20 км 5/3 900 м
[Cb cap Ci fib]
+33.4 +23.9 58 +45 +52 опасность
перегрева
1010.2 1009.7
00 14.08 В 2 20 км гроза без осадков {туман} 9/5 750 м
[Cb cap Ac As Ci fib]
+29.2 +25.2 79 +42 +42 опасность
перегрева
1011.4 1010.9 +22.0 +33.5
12 14.08 штиль 0 20 км 5/0
[Ac trans Ci fib]
+25.2 +24.4 95 +35 +35 очень
душно
1013.0 1012.5 +24.5 +33.5 0.6
15 14.08 СВ 2 20 км 4/1 750 м
[Cu hum Ac trans Ci fib]
+31.2 +24.8 69 +44 +54 опасность
перегрева
1013.4 1012.9
18 14.08 Ю 2 20 км 3/3 900 м
[Cu hum]
+33.2 +25.8 65 +48 +64 опасность
перегрева
1013.4 1012.9 +24.5 +33.2
21 14.08 ЮЗ 2 20 км 4/1 960 м
[Cb cap Ac trans]
+34.0 +25.2 60 +48 +56 опасность
перегрева
1011.4 1010.9
00 15.08 Ю 2 20 км 3/1 960 м
[Cb cap Ac trans]
+30.4 +27.0 82 +48 +48 опасность
перегрева
1011.7 1011.2 +23.4 +34.5
12 15.08 С 4 20 км 9/0
[Cs]
+26.8 +24.4 87 +38 +38 очень
душно
1012.8 1012.3 +25.2 +34.5
15 15.08 С 2 20 км 3/0
[]
+30.2 +24.2 70 +42 +52 опасность
перегрева
1014.3 1013.8
18 15.08 ЮЗ 2 20 км 5/1 900 м
[Cu hum Ci fib]
+33.4 +23.9 58 +45 +63 опасность
перегрева
1013.3 1012.8 +25.2 +33.4
21 15.08 ЮЗ 3 20 км 3/1 900 м
[Cu hum Ci fib]
+24.4 +24.0 98 +34 +41 очень
душно
1011.5 1011.0
00 16.08 штиль 0 20 км гроза без осадков {дождь} 9/3 840 м
[Cb cap Ac As Ci fib]
+28.8 +27.0 90 +45 +45 опасность
перегрева
1011.5 1011.0 +25.2 +35.2 2
12 16.08 штиль 0 20 км 3/0
[Ci fib]
+27.8 +24.6 83 +39 +40 очень
душно
1013.0 1012.5 +26.0 +35.2
15 16.08 СВ 2 20 км 4/1 750 м
[Cu hum Ac trans Ci fib]
+31.8 +23.9 63 +43 +53 опасность
перегрева
1014.6 1014.1

 

Местоположение метеостанции Amapala (Гондурас): широта 13.27 долгота -87.65 высота над уровнем моря 5 м.

В архиве по умолчанию представлена погода в Amapala за последнюю неделю. Архивные данные за месяц целиком и за предыдущие месяцы, начиная с января 2011 года, Вы можете получить, выбрав интересующий диапазон дат из раскрывающегося списка и нажав кнопку "Ввод!".

Внимание! Время в таблицах - всемирное. Для получения местного времени необходимо прибавить поправку, которая в Amapala равна -6 ч.

Смотрите также архив погоды в соседних городах и на ближайших метеорологических станциях:

Погода в Choluteca (Гондурас) (51 км)
Погода в Chinandega (Никарагуа) (91 км)
Погода в Tegucigalpa (Гондурас) (99 км)
Погода в La Esperanza (Гондурас) (129 км)
Погода в Jinotega (Никарагуа) (182 км)
Погода в Managua (Никарагуа) (203 км)
Погода в Santa Rosa De Copan (Гондурас) (208 км)
Погода в Nueva Ocotepeque (Гондурас) (210 км)
Погода в Yoro (Гондурас) (219 км)
Погода в La Mesa (Гондурас) (244 км)

Пояснения к столбцам:

Ветер - указаны скорость ветра в м/с - средняя за 10 мин, порывы в срок и между сроками (в фигурных скобках) и направление, откуда дует ветер: С - северный, СВ - северо-восточный, В - восточный, ЮВ - юго-восточный, Ю - южный, ЮЗ - юго-западный, З - западный, СЗ - северо-западный.
Видимость - горизонтальная дальность видимости в метрах или километрах. При видимости от 1 до 10 км при отсутствии осадков обычно наблюдается дымка, при ухудшении видимости до 1 км и менее - туман. В сухую погоду видимость может ухудшаться дымом, пылью или мглою.
Явления - указаны атмосферные явления, наблюдавшиеся в срок или в последний час перед сроком; фигурными скобками обозначены явления, наблюдавшиеся между сроками (за 1-3 часа до срока); квадратными скобками обозначены град или гололедные отложения с указанием их диаметра в мм.
Облачность - указаны через наклонную черту общая и нижняя облачность в баллах и высота нижней границы облаков в метрах; квадратными скобками обозначены формы облаков: Ci - перистые, Cs - перисто-слоистые, Cc - перисто-кучевые, Ac - высококучевые, As - высокослоистые, Sc - слоисто-кучевые, Ns - слоисто-дождевые, Cu - кучевые, Cb - кучево-дождевые. Подробнее классификацию облаков см. в Атласе облаков (PDF).
T - Температура воздуха - температура, измеренная на высоте 2 м над землей.
Td - Температура точки росы - температура, при понижении до которой содержащийся в воздухе водяной пар достигнет насыщения.
f - Относительная влажность воздуха - влажноcть воздуха, измеренная на высоте 2 м над землей.
Te - Эффективная температура - температура, которую ощущает одетый по сезону человек в тени. Характеристика душности погоды. При расчете учитывается влияние влажности воздуха и скорости ветра на теплоощущения человека.
Tes - Эффективная температура на солнце - температура, которую ощущает человек, с поправкой на солнечный нагрев. Характеристика знойности погоды. Зависит от высоты солнца над горизонтом, облачности и скорости ветра. Ночью, в пасмурную погоду, а также при ветре 12 м/с и более поправка равна нулю.
P - Атмосферное давление - приведенное к уровню моря атмосферное давление.
Po - Атмосферное давление - измеренное на уровне метеостанции атмосферное давление.
Tmin - Минимальная температура - минимум температуры воздуха на высоте 2 м над землей.
Tmax - Максимальная температура - максимум температуры воздуха на высоте 2 м над землей.
R - Количество осадков - Количество выпавших осадков за период времени, мм. При наведении курсора мыши на число - период времени, за который выпало указанное количество осадков.
R24 - Количество осадков - Количество выпавших осадков за 24 часа, мм.
S - Снежный покров - Высота снежного покрова, см. При наведении курсора мыши на число - состояние снежного покрова и степень покрытия местности в баллах.